Regional Weather Roundup
Issued by NWS

Home | Current Version | Previous Version | Text Only | Print | Product List | Glossary Off
Versions: 1 2 3 4 5 6 7 8 9 10 11 12 13 14 15 16 17 18 19 20 21 22 23 24 25 26 27

000
ASUS45 KBOU 201607
RWRCO

WEATHER ROUNDUP FOR COLORADO
NATIONAL WEATHER SERVICE DENVER/BOULDER CO
1000 AM MDT FRI OCT 20 2017

NOTE: "FAIR" INDICATES FEW OR NO CLOUDS BELOW 12000 FEET WITH NO
SIGNIFICANT WEATHER AND/OR OBSTRUCTIONS TO VISIBILITY.

COZ001>005-013-030-031-201700-
...NORTHWEST COLORADO...

CITY           SKY/WX    TMP DP  RH WIND       PRES   REMARKS
CRAIG          FAIR      63  34  33 SW21G26   29.77F
HAYDEN         FAIR      57  34  41 E9        29.81F
MEEKER         FAIR      62  35  36 S8        29.80F
RABBIT EARS PA FAIR      43  32  65 SW8G24    30.01S
STEAMBOAT SPGS FAIR      44  33  63 CALM      29.84F
WALDEN         NOT AVBL
$$

COZ006>008-011-201700-
...WEST CENTRAL VALLEYS...

CITY           SKY/WX    TMP DP  RH WIND       PRES   REMARKS
GRAND JUNCTION FAIR      66  36  32 SE21      29.78F
MONTROSE       FAIR      64  34  32 SE7       29.88F
EAGLE          FAIR      46  30  53 W3        29.91F
RIFLE          FAIR      57  36  45 SE8       29.80F
DELTA          FAIR      61  34  36 NE7       29.85F
NUCLA          NOT AVBL
$$

COZ017>023-064>068-201700-
...SOUTHWEST COLORADO...

CITY           SKY/WX    TMP DP  RH WIND       PRES   REMARKS
DURANGO        FAIR      55  39  54 E6        30.03R
CORTEZ         FAIR      62  39  42 S13       29.95F
PAGOSA SPRINGS FAIR      53  37  54 CALM      30.08R
TELLURIDE      FAIR      52  28  39 S20G31    30.05F
WOLF CREEK PAS HVY SNOW  32  32 100 SW22G30   30.22S VSB<1/4 WCI  19
$$

COZ009-010-012-014-032>034-037-058>063-201700-
...CENTRAL COLORADO...

CITY           SKY/WX    TMP DP  RH WIND       PRES   REMARKS
ASPEN          PTSUNNY   50  33  52 CALM      29.92F
BUENA VISTA    FAIR      47  27  46 S3        29.97F
COPPER MTN     CLOUDY    41  28  60 W10G26    30.12S
BERTHOUD PASS  CLOUDY    32  23  69 W31G43    30.10F WCI  17
COTTONWOOD PAS FAIR      48  30  49 SE5       30.03F
GUNNISON       NOT AVBL
KREMMLING      FAIR      43  30  61 CALM      29.94F
LEADVILLE      PTSUNNY   43  25  49 S7        30.01F
MONARCH PASS   CLOUDY    36  27  69 SW31G38   30.23F
SALIDA         FAIR      55  32  41 S8        30.01F
SUNLIGHT       PTSUNNY   41  30  65 S15G36    30.05F
WILKERSON PASS FAIR      37  27  65 SW14G25   30.10S
$$

COZ069>075-201700-
...SAN LUIS VALLEY/SANGRE DE CRISTO MOUNTAINS...

CITY           SKY/WX    TMP DP  RH WIND       PRES   REMARKS
ALAMOSA        FAIR      57  38  48 S17G25    29.99F
DEL NORTE      FAIR      49  30  47 SE3       30.02F
LA VETA PASS   FAIR      45  32  61 S26G40    30.17R
SAGUACHE       FAIR      46  32  57 CALM      30.02F
$$

COZ035-036-038>040-201700-
...NORTHERN COLORADO FRONT RANGE...

CITY           SKY/WX    TMP DP  RH WIND       PRES   REMARKS
DENVER INTL AP FAIR      65  30  27 S12       29.73F
DMNS CITY PARK   N/A     65  29  26 SE7       29.73F
AURORA         MOSUNNY   64  31  29 SW15      29.76F
FRONT RANGE AP MOSUNNY   68  30  24 S10       29.76F
ERIE MUNI ARPT FAIR      60  36  41 E3        29.77F
BOULDER MUN AP FAIR      63  34  34 CALM      29.72F
CENTENNIAL     FAIR      65  29  25 SW16      29.77F
BROOMFIELD     MOSUNNY   66  36  32 CALM      29.76F
FORT COLLINS   FAIR      54  37  52 N5        29.73F
LONGMONT       FAIR      61  38  42 CALM      29.74S
$$

COZ041-046-047-076>085-087-088-201700-
...PIKES PEAK/PALMER DIVIDE AND SOUTHERN FOOTHILLS...

CITY           SKY/WX    TMP DP  RH WIND       PRES   REMARKS
COLO. SPRINGS  FAIR      67  31  26 S6        29.82F
A. F. ACADEMY  FAIR      63  27  26 CALM      29.82F
SCHRIEVER AFB  FAIR      66  28  24 SW8       29.83S
CHEYENNE MTN   FAIR      60  27  28 CALM      29.79F
ELLICOTT       FAIR     N/A N/A N/A SW7       29.81S
FALCON         FAIR      65  26  22 W16G23    29.86F
FORT CARSON    NOT AVBL
LIMON          FAIR      64  35  34 W10       29.76F
MONUMENT HILL  FAIR      61  30  31 W14       29.87F
CANON CITY     FAIR      68  32  26 W15       29.80F
WALSENBURG     FAIR      66  37  34 W25G32    29.86F
TRINIDAD       FAIR      65  40  39 S5        29.85F
$$

COZ042>045-048>051-090-091-201700-
...NORTHEAST COLORADO...

CITY           SKY/WX    TMP DP  RH WIND       PRES   REMARKS
GREELEY ARPT   FAIR      51  36  56 CALM      29.73F
AKRON          FAIR      57  36  45 W16       29.70F
BURLINGTON     FAIR      60  50  69 S12       29.72F
WRAY           NOT AVBL
YUMA           NOT AVBL
STERLING       NOT AVBL
HOLYOKE        FAIR      61  50  67 S10       29.69F
FORT MORGAN    FAIR      60  32  35 W13       29.72F
$$

COZ086-089-092>099-201700-
...SOUTHEAST COLORADO...

CITY           SKY/WX    TMP DP  RH WIND       PRES   REMARKS
PUEBLO         FAIR      71  33  24 W14       29.76F
LA JUNTA       FAIR      69  41  36 SW12      29.75F
LAMAR          FAIR      56  42  59 W7        29.73F
SPRINGFIELD    NOT AVBL
$$




USA.gov is the U.S. government's official web portal to all federal, state and local government web resources and services.